Starlink 30978

operational
NORAD ID: 58490 Int'l Des: 2023-186 Owner: SPXS Country: US Constellation: starlink
LEOCIRCULAR

About Starlink 30978

Description loading...

Live Position

Loading 3D Globe...

Upcoming Passes

Altitude History

Altitude vs Time

uPlot chart will show altitude changes over time

Two-Line Element Set

1 58490U 23186T 25305.98780409 .00008054 00000-0 61051-3 0 9999
2 58490 43.0030 41.1876 0001886 280.0174 80.0455 15.02539606106635
Epoch: Nov 1, 2025 • Age: 37 hours

Current Status

Altitude 558.8 km
Velocity 7.58 km/s
Sub-Earth Point 8.38°N, 36.56°W
Launch Date Dec 3, 2023
Age 1.9 years
Type internet

Technical Details

Classification Payload
Mass 730.00 kg
Dry Mass 700.00 kg
Total Mass 730.00 kg
Length 0.30 m
Diameter 4.10 m
Span 29.00 m
Shape Box + pan
Manufacturer SPXS
Bus Type Starlink V2M
Phase Status In Orbit
Owner/State SPXS/US

Large Constellations

Loading constellations...